Torna al catalogo

FENGYUN 1C DEB

AttivoSSO
NORAD 37046·DEBRIS·🇨🇳 China

Lanciato May 10, 1999 da Taiyuan Satellite Launch Center

Loading…

Prossimi Passaggi (prossime 24 ore)

TLE

In scadenzaSource: Space-Track

Epoca: Sep 10, 2026, 06:19 UTC

1 37046U 99025EEE 26253.26360194  .00000943  00000-0  41099-3 0  9996
2 37046  98.5366 265.3477 0048297 233.5760 126.0962 14.25653086680492

Traccia FENGYUN 1C DEB in tempo reale con AllMySat

Download on the App Store